| time (UTC) | temp F | wind direction | speed knots | gust knots | rain 1hr in | rain 24hr in | rain mn in | humidity % | barometer mb |
| 20260510060526 | 58 | 110 | 5.2 | 7.0 | 0.00 | 0.00 | 0.00 | 72 | |
| 20260510055521 | 58 | 101 | 3.5 | 7.0 | 0.00 | 0.00 | 0.00 | 72 | |
| 20260510054526 | 58 | 89 | 4.3 | 6.1 | 0.00 | 0.00 | 0.00 | 72 | |
| 20260510053522 | 58 | 104 | 5.2 | 7.8 | 0.00 | 0.00 | 0.00 | 73 | |
| 20260510052548 | 58 | 94 | 5.2 | 7.8 | 0.00 | 0.00 | 0.00 | 72 | |
| 20260510051523 | 58 | 87 | 3.5 | 6.1 | 0.00 | 0.00 | 0.00 | 72 | |
| 20260510050529 | 58 | 126 | 4.3 | 7.0 | 0.00 | 0.00 | 0.00 | 72 | |
| 20260510045525 | 58 | 70 | 3.5 | 7.0 | 0.00 | 0.00 | 0.00 | 72 | |
| 20260510044541 | 57 | 90 | 4.3 | 7.0 | 0.00 | 0.00 | 0.00 | 72 | |
| 20260510043526 | 58 | 90 | 4.3 | 7.0 | 0.00 | 0.00 | 0.00 | 72 | |
| 20260510042522 | 58 | 67 | 4.3 | 7.0 | 0.00 | 0.00 | 0.00 | 71 | |
| 20260510041527 | 57 | 79 | 3.5 | 5.2 | 0.00 | 0.00 | 0.00 | 71 | |
| 20260510040524 | 58 | 97 | 6.1 | 8.7 | 0.00 | 0.00 | 0.00 | 71 | |
| 20260510035529 | 58 | 118 | 4.3 | 7.0 | 0.00 | 0.00 | 0.00 | 71 | |
| 20260510034524 | 57 | 151 | 2.6 | 4.3 | 0.00 | 0.00 | 0.00 | 71 | |
| 20260510033541 | 57 | 111 | 4.3 | 7.0 | 0.00 | 0.00 | 0.00 | 71 | |
| 20260510032526 | 58 | 101 | 4.3 | 7.8 | 0.00 | 0.00 | 0.00 | 71 | |
| 20260510031522 | 57 | 69 | 1.7 | 4.3 | 0.00 | 0.00 | 0.00 | 70 | |
| 20260510030527 | 57 | 360 | 0.9 | 3.5 | 0.00 | 0.00 | 0.00 | 70 | |
| 20260510025543 | 57 | 50 | 4.3 | 7.8 | 0.00 | 0.00 | 0.00 | 71 | |
| 20260510024529 | 57 | 47 | 4.3 | 7.0 | 0.00 | 0.00 | 0.00 | 71 | |
| 20260510023526 | 57 | 94 | 4.3 | 7.0 | 0.00 | 0.00 | 0.00 | 72 | |
| 20260510022542 | 57 | 86 | 4.3 | 7.8 | 0.00 | 0.00 | 0.00 | 72 | |
| 20260510021526 | 57 | 112 | 4.3 | 7.8 | 0.00 | 0.00 | 0.00 | 72 | |
| 20260510020522 | 57 | 89 | 6.1 | 10.4 | 0.00 | 0.00 | 0.00 | 71 | |
| 20260510015527 | 57 | 56 | 6.1 | 10.4 | 0.00 | 0.00 | 0.00 | 71 | |
| 20260510014524 | 57 | 104 | 6.1 | 10.4 | 0.00 | 0.00 | 0.00 | 71 | |
| 20260510013528 | 57 | 108 | 7.0 | 11.3 | 0.00 | 0.00 | 0.00 | 70 | |
| 20260510012525 | 57 | 114 | 8.7 | 11.3 | 0.00 | 0.00 | 0.00 | 70 | |
| 20260510011521 | 57 | 104 | 8.7 | 11.3 | 0.00 | 0.00 | 0.00 | 71 | |
| 20260510010526 | 57 | 112 | 7.8 | 11.3 | 0.00 | 0.00 | 0.00 | 71 | |
| 20260510005522 | 56 | 90 | 6.1 | 9.6 | 0.00 | 0.00 | 0.00 | 72 | |
| 20260510004547 | 57 | 106 | 7.8 | 12.2 | 0.00 | 0.00 | 0.00 | 74 | |
| 20260510003523 | 57 | 101 | 7.0 | 11.3 | 0.00 | 0.00 | 0.00 | 76 | |
| 20260510002529 | 56 | 94 | 6.1 | 10.4 | 0.00 | 0.00 | 0.00 | 81 | |
| 20260510001605 | 55 | 86 | 7.0 | 9.6 | 0.00 | 0.00 | 0.00 | 82 | |
| 20260510000522 | 55 | 82 | 7.8 | 10.4 | 0.00 | 0.00 | 0.00 | 83 | |
| 20260509235526 | 55 | 88 | 6.1 | 8.7 | 0.00 | 0.00 | 0.00 | 85 | |
| 20260509234523 | 54 | 95 | 7.0 | 8.7 | 0.00 | 0.00 | 0.00 | 88 | |
| 20260509233528 | 54 | 92 | 7.0 | 9.6 | 0.00 | 0.00 | 0.00 | 87 | |
| 20260509232524 | 54 | 91 | 7.8 | 10.4 | 0.00 | 0.00 | 0.00 | 87 | |
| 20260509231528 | 54 | 93 | 7.0 | 10.4 | 0.00 | 0.00 | 0.00 | 90 | |
| 20260509230525 | 53 | 93 | 7.0 | 8.7 | 0.00 | 0.00 | 0.00 | 91 | |
| 20260509225521 | 53 | 87 | 6.1 | 8.7 | 0.00 | 0.00 | 0.00 | 91 | |
| 20260509224547 | 53 | 90 | 7.0 | 8.7 | 0.00 | 0.00 | 0.00 | 91 | |
| 20260509223522 | 52 | 89 | 7.0 | 8.7 | 0.00 | 0.00 | 0.00 | 92 | |
| 20260509222528 | 52 | 91 | 7.0 | 7.8 | 0.00 | 0.00 | 0.00 | 92 | |
| 20260509221524 | 52 | 92 | 7.0 | 8.7 | 0.00 | 0.00 | 0.00 | 92 | |
| 20260509220529 | 52 | 85 | 7.0 | 8.7 | 0.00 | 0.00 | 0.00 | 92 | |
| 20260509215525 | 52 | 83 | 7.8 | 9.6 | 0.00 | 0.00 | 0.00 | 92 | |
| 20260509214541 | 52 | 90 | 7.0 | 8.7 | 0.00 | 0.00 | 0.00 | 92 | |
| 20260509213526 | 52 | 91 | 7.0 | 8.7 | 0.00 | 0.00 | 0.00 | 92 | |
| 20260509212543 | 52 | 90 | 7.0 | 8.7 | 0.00 | 0.00 | 0.00 | 91 | |
| 20260509211527 | 52 | 84 | 7.8 | 9.6 | 0.00 | 0.00 | 0.00 | 91 | |
| 20260509210524 | 52 | 84 | 7.8 | 9.6 | 0.00 | 0.00 | 0.00 | 91 | |
| 20260509205529 | 52 | 85 | 7.0 | 8.7 | 0.00 | 0.00 | 0.00 | 91 | |
| 20260509204526 | 52 | 86 | 7.8 | 9.6 | 0.00 | 0.00 | 0.00 | 91 | |
| 20260509203522 | 52 | 78 | 7.0 | 8.7 | 0.00 | 0.00 | 0.00 | 92 | |
| 20260509202526 | 51 | 80 | 7.0 | 8.7 | 0.00 | 0.00 | 0.00 | 93 | |
| 20260509201522 | 51 | 75 | 6.1 | 8.7 | 0.00 | 0.00 | 0.00 | 93 | |
| 20260509200527 | 52 | 75 | 6.1 | 9.6 | 0.00 | 0.00 | 0.00 | 93 | |
| 20260509195524 | 51 | 62 | 6.1 | 8.7 | 0.00 | 0.00 | 0.00 | 95 | |
| 20260509194529 | 51 | 59 | 6.1 | 8.7 | 0.00 | 0.00 | 0.00 | 96 | |
| 20260509193525 | 51 | 52 | 7.0 | 9.6 | 0.00 | 0.00 | 0.00 | 96 | |
| 20260509192520 | 50 | 47 | 7.8 | 10.4 | 0.00 | 0.00 | 0.00 | 97 | |
| 20260509191527 | 50 | 53 | 7.8 | 11.3 | 0.00 | 0.00 | 0.00 | 97 | |
| 20260509190522 | 50 | 38 | 8.7 | 11.3 | 0.00 | 0.00 | 0.00 | 97 | |
| 20260509185528 | 51 | 45 | 8.7 | 11.3 | 0.00 | 0.00 | 0.00 | 96 | |
| 20260509184524 | 51 | 46 | 8.7 | 11.3 | 0.00 | 0.00 | 0.00 | 96 | |
| 20260509183528 | 51 | 48 | 8.7 | 11.3 | 0.00 | 0.00 | 0.00 | 96 | |
| 20260509182525 | 51 | 56 | 7.8 | 10.4 | 0.00 | 0.00 | 0.00 | 96 | |
| 20260509181521 | 51 | 52 | 7.8 | 11.3 | 0.00 | 0.00 | 0.00 | 96 | |
| 20260509180526 | 51 | 51 | 7.8 | 11.3 | 0.00 | 0.00 | 0.00 | 96 | |
| 20260509175522 | 51 | 51 | 7.8 | 10.4 | 0.00 | 0.00 | 0.00 | 96 | |
| 20260509174548 | 51 | 62 | 7.8 | 10.4 | 0.00 | 0.00 | 0.00 | 96 | |
| 20260509173524 | 51 | 71 | 7.0 | 9.6 | 0.00 | 0.00 | 0.00 | 96 | |
| 20260509172529 | 51 | 79 | 7.0 | 9.6 | 0.00 | 0.00 | 0.00 | 96 | |
| 20260509171544 | 51 | 83 | 7.8 | 10.4 | 0.00 | 0.00 | 0.00 | 95 | |
| 20260509170521 | 51 | 84 | 7.8 | 9.6 | 0.00 | 0.00 | 0.00 | 95 | |
| 20260509165525 | 52 | 84 | 8.7 | 10.4 | 0.00 | 0.00 | 0.00 | 94 | |
| 20260509164522 | 52 | 84 | 8.7 | 10.4 | 0.00 | 0.00 | 0.00 | 94 | |
| 20260509163528 | 52 | 85 | 8.7 | 11.3 | 0.00 | 0.00 | 0.00 | 94 | |
| 20260509162523 | 51 | 85 | 8.7 | 11.3 | 0.00 | 0.00 | 0.00 | 95 | |
| 20260509161528 | 51 | 82 | 8.7 | 10.4 | 0.00 | 0.00 | 0.00 | 94 | |
| 20260509160545 | 51 | 82 | 8.7 | 10.4 | 0.00 | 0.00 | 0.00 | 94 | |
| 20260509155521 | 52 | 85 | 7.8 | 10.4 | 0.00 | 0.00 | 0.00 | 93 | |
| 20260509154526 | 52 | 84 | 8.7 | 10.4 | 0.00 | 0.00 | 0.00 | 93 | |
| 20260509153522 | 52 | 82 | 8.7 | 9.6 | 0.00 | 0.00 | 0.00 | 94 | |
| 20260509152528 | 51 | 86 | 7.0 | 8.7 | 0.00 | 0.00 | 0.00 | 94 | |
| 20260509151524 | 52 | 82 | 7.8 | 9.6 | 0.00 | 0.00 | 0.00 | 94 | |
| 20260509150529 | 51 | 82 | 7.8 | 10.4 | 0.00 | 0.00 | 0.00 | 95 | |
| 20260509145525 | 51 | 81 | 7.8 | 9.6 | 0.00 | 0.00 | 0.00 | 95 | |
| 20260509144521 | 51 | 80 | 8.7 | 9.6 | 0.00 | 0.00 | 0.00 | 95 | |
| 20260509143526 | 51 | 85 | 7.8 | 9.6 | 0.00 | 0.00 | 0.00 | 94 | |
| 20260509142603 | 51 | 89 | 7.8 | 9.6 | 0.00 | 0.00 | 0.00 | 94 | |
| 20260509141527 | 52 | 94 | 8.7 | 11.3 | 0.00 | 0.00 | 0.00 | 93 | |
| 20260509140523 | 52 | 95 | 9.6 | 11.3 | 0.00 | 0.00 | 0.00 | 93 | |
| 20260509135528 | 52 | 93 | 9.6 | 13.0 | 0.00 | 0.00 | 0.00 | 94 | |
| 20260509134525 | 52 | 96 | 8.7 | 10.4 | 0.00 | 0.00 | 0.00 | 94 | |
| 20260509133521 | 51 | 94 | 9.6 | 11.3 | 0.00 | 0.00 | 0.00 | 95 | |
| 20260509132525 | 52 | 91 | 8.7 | 11.3 | 0.00 | 0.00 | 0.00 | 95 | |
| 20260509131522 | 52 | 87 | 8.7 | 11.3 | 0.00 | 0.00 | 0.00 | 96 | |
| 20260509130528 | 52 | 86 | 8.7 | 10.4 | 0.00 | 0.00 | 0.00 | 96 | |
| 20260509125523 | 52 | 86 | 8.7 | 11.3 | 0.00 | 0.00 | 0.00 | 96 | |
| 20260509124528 | 53 | 84 | 8.7 | 11.3 | 0.00 | 0.00 | 0.00 | 97 | |
| 20260509123524 | 53 | 89 | 8.7 | 10.4 | 0.00 | 0.00 | 0.00 | 98 | |
| 20260509122521 | 53 | 85 | 9.6 | 12.2 | 0.00 | 0.00 | 0.00 | 98 | |
| 20260509121525 | 53 | 85 | 7.8 | 9.6 | 0.00 | 0.00 | 0.00 | 97 | |
| 20260509120524 | 53 | 87 | 7.0 | 9.6 | 0.00 | 0.00 | 0.00 | 96 | |
| 20260509115527 | 54 | 96 | 7.0 | 8.7 | 0.00 | 0.00 | 0.00 | 95 | |
| 20260509114523 | 54 | 100 | 7.8 | 9.6 | 0.00 | 0.00 | 0.00 | 93 | |
| 20260509113528 | 54 | 112 | 9.6 | 13.9 | 0.00 | 0.00 | 0.00 | 95 | |
| 20260509112525 | 54 | 117 | 8.7 | 12.2 | 0.00 | 0.00 | 0.00 | 97 | |
| 20260509111521 | 54 | 126 | 5.2 | 8.7 | 0.00 | 0.00 | 0.00 | 97 | |
| 20260509110547 | 55 | 131 | 6.1 | 8.7 | 0.00 | 0.00 | 0.00 | 97 | |
| 20260509105543 | 55 | 133 | 4.3 | 7.0 | 0.00 | 0.00 | 0.00 | 97 | |
| 20260509104527 | 55 | 136 | 3.5 | 6.1 | 0.00 | 0.00 | 0.00 | 97 | |
| 20260509103524 | 55 | 156 | 4.3 | 6.1 | 0.00 | 0.00 | 0.00 | 97 | |
| 20260509102528 | 55 | 160 | 4.3 | 7.0 | 0.00 | 0.00 | 0.00 | 96 | |
| 20260509101525 | 55 | 162 | 5.2 | 7.0 | 0.00 | 0.00 | 0.00 | 95 | |
| 20260509100521 | 55 | 170 | 4.3 | 7.0 | 0.00 | 0.00 | 0.00 | 95 | |
| 20260509095525 | 56 | 174 | 2.6 | 4.3 | 0.00 | 0.00 | 0.00 | 94 | |
| 20260509094522 | 56 | 173 | 3.5 | 7.0 | 0.00 | 0.00 | 0.00 | 94 | |
| 20260509093527 | 56 | 172 | 4.3 | 7.0 | 0.00 | 0.00 | 0.00 | 94 | |
| 20260509092523 | 55 | 170 | 3.5 | 6.1 | 0.00 | 0.00 | 0.00 | 94 | |
| 20260509091528 | 55 | 179 | 3.5 | 6.1 | 0.00 | 0.00 | 0.00 | 93 | |
| 20260509090526 | 56 | 169 | 3.5 | 5.2 | 0.00 | 0.00 | 0.00 | 93 | |
| 20260509085541 | 56 | 177 | 4.3 | 7.0 | 0.00 | 0.00 | 0.00 | 93 | |
| 20260509084526 | 56 | 177 | 5.2 | 7.8 | 0.00 | 0.00 | 0.00 | 92 | |
| 20260509083522 | 56 | 173 | 6.1 | 9.6 | 0.00 | 0.00 | 0.00 | 91 | |
| 20260509082548 | 56 | 175 | 6.1 | 9.6 | 0.00 | 0.00 | 0.00 | 91 | |
| 20260509081523 | 56 | 179 | 6.1 | 10.4 | 0.00 | 0.00 | 0.00 | 90 | |
| 20260509080549 | 57 | 181 | 5.2 | 8.7 | 0.00 | 0.00 | 0.00 | 89 | |
| 20260509075524 | 57 | 179 | 7.0 | 11.3 | 0.00 | 0.00 | 0.00 | 89 | |
| 20260509074520 | 57 | 179 | 7.8 | 12.2 | 0.00 | 0.00 | 0.00 | 88 | |
| 20260509073546 | 57 | 176 | 6.1 | 9.6 | 0.00 | 0.00 | 0.00 | 88 | |
| 20260509072523 | 57 | 196 | 6.1 | 9.6 | 0.00 | 0.00 | 0.00 | 88 | |
| 20260509071528 | 57 | 187 | 7.8 | 12.2 | 0.00 | 0.00 | 0.00 | 88 | |
| 20260509070523 | 57 | 191 | 7.8 | 12.2 | 0.00 | 0.00 | 0.00 | 88 | |
| 20260509065528 | 58 | 195 | 8.7 | 12.2 | 0.00 | 0.00 | 0.00 | 87 | |
| 20260509064546 | 58 | 199 | 8.7 | 11.3 | 0.00 | 0.00 | 0.00 | 86 | |
| 20260509063521 | 58 | 184 | 7.0 | 12.2 | 0.00 | 0.00 | 0.00 | 85 | |
| 20260509062526 | 58 | 197 | 7.8 | 11.3 | 0.00 | 0.00 | 0.00 | 85 | |
| 20260509061522 | 58 | 204 | 9.6 | 13.0 | 0.00 | 0.00 | 0.00 | 85 |